Weather Roundup
Issued by NWS Chicago, IL

Home | Current Version | Previous Version | Graphics & Text | Print | Product List | Glossary On
Versions: 1 2 3 4 5 6 7 8 9 10 11 12 13 14 15 16 17 18 19 20 21 22 23 24 25 26 27 28 29 30 31 32 33 34 35 36 37 38 39 40 41 42 43 44 45 46 47 48 49 50
000
NZUS59 KLOT 161800
HRRLOT

CHICAGO AREA WEATHER ROUNDUP
NATIONAL WEATHER SERVICE CHICAGO/ROMEOVILLE IL
100 PM CDT TUE SEP 16 2014

NOTE: "FAIR" INDICATES FEW OR NO CLOUDS BELOW 12,000 FEET WITH NO
SIGNIFICANT WEATHER AND/OR OBSTRUCTIONS TO VISIBILITY.

* THESE STATIONS ARE NOT UNDER NWS QUALITY CONTROL. THEY ALSO MAY NOT
  REPORT WEATHER SUCH AS PRECIPITATION OR FOG.

ILZ005-006-012>014-019>023-161900-
NORTHEAST ILLINOIS

CITY           SKY/WX    TMP DP  RH WIND       PRES   REMARKS
OHARE          MOSUNNY   63  39  41 NW6       30.17F
6HR MIN TEMP:  45; 6HR MAX TEMP:  63;

MIDWAY         MOSUNNY   65  43  44 VRB3      30.17F
6HR MIN TEMP:  47; 6HR MAX TEMP:  65;

AURORA         SUNNY     65  42  43 W6        30.19F
6HR MIN TEMP:  40; 6HR MAX TEMP:  65;

WAUKEGAN       SUNNY     63  41  44 VRB3      30.17F
6HR MIN TEMP:  44; 6HR MAX TEMP:  63;

DUPAGE AIRPORT SUNNY     65  41  41 NW3       30.18F
6HR MIN TEMP:  42; 6HR MAX TEMP:  66;

WHEELING       SUNNY     65  40  39 W7        30.19F
6HR MIN TEMP:  45; 6HR MAX TEMP:  65;

NORTHERLY IS     N/A     59  50  72 NE7         N/A
$$

WIZ051-052-058>065-066-070>072-161900-
SOUTHEAST WISCONSIN

CITY           SKY/WX    TMP DP  RH WIND       PRES   REMARKS
MILWAUKEE      MOSUNNY   61  37  41 CALM      30.17F
6HR MIN TEMP:  45; 6HR MAX TEMP:  62;

KENOSHA*       SUNNY     61  42  49 W5        30.17F
RACINE*        SUNNY     62  40  44 VRB6G21   30.18F
$$

INZ001>003-010>013-019-020-161900-
NORTHWEST INDIANA

CITY           SKY/WX    TMP DP  RH WIND       PRES   REMARKS
GARY*          MOSUNNY   64  46  52 N12       30.18F
MICHIGAN CITY* NOT AVBL
RENSSELAER*    NOT AVBL
VALPARAISO     CLOUDY    63  48  58 VRB3      30.18F
$$

LMZ740>746-161900-
SOUTHERN LAKE MICHIGAN

STATION/POSITION TIME  SKY/WX   TEMP WIND        PRES    VSBY
                                AIR  DIR/SP/G
                 (UTC)          (F)  (DEG/KT/KT) (MB)    (MI)
HARRISON CRIB    1700            56   10/  5/  6   N/A
BURNHAM HARBOR   1800            59   40/  6/  7   N/A
CALUMET HARBOR   1700            59   50/  6/  7 1020.8F
BURNS HARBOR     NOT AVBL
MICHIGAN CITY    1700            61  260/  6/  9   N/A
$$

ABBREVIATIONS USED IN REMARKS
   TC - TEMPERATURE IN CELSIUS
  WCI - WIND CHILL INDEX
   HX - HEAT INDEX
  VSB - VISIBILITY
$$



USA.gov is the U.S. government's official web portal to all federal, state and local government web resources and services.